G4RHR Weather Reports


Display with metric or nautical units.
time (UTC)temp
F
wind
direction
speed
MPH
gust
MPH
rain 1hr
in
rain 24hr
in
rain mn
in
humidity
%
barometer
mb
20260507074801 54 52 2.0 5.0 0.00 0.02 0.00 71 1015.4
20260507073901 54 55 3.0 6.0 0.00 0.02 0.00 72 1015.3
20260507073000 54 60 3.0 8.0 0.00 0.02 0.00 73 1015.2
20260507072100 53 64 4.0 7.0 0.00 0.02 0.00 75 1015.2
20260507071201 52 60 3.0 7.0 0.00 0.02 0.00 77 1015.2
20260507070300 52 38 3.0 5.0 0.00 0.02 0.00 80 1015.2
20260507065401 51 37 2.0 5.0 0.00 0.02 0.00 82 1015.2
20260507064503 50 39 2.0 5.0 0.00 0.02 0.00 85 1015.2
20260507063603 49 24 2.0 5.0 0.00 0.02 0.00 89 1015.1
20260507062700 48 32 3.0 5.0 0.00 0.02 0.00 91 1015.1
20260507061800 46 29 2.0 5.0 0.00 0.02 0.00 93 1015.1
20260507061111 45 9 1.0 3.0 0.00 0.02 0.00 93 1015.1
20260507060001 44 10 1.0 3.0 0.00 0.02 0.00 93 1015.1
20260507055100 43 2 2.0 3.0 0.00 0.02 0.00 93 1015.0
20260507054201 43 360 1.0 3.0 0.00 0.02 0.00 93 1015.0
20260507053301 42 360 1.0 2.0 0.00 0.02 0.00 93 1015.0
20260507052403 42 360 1.0 3.0 0.00 0.02 0.00 93 1014.9
20260507051500 41 360 1.0 3.0 0.00 0.02 0.00 93 1014.9
20260507050813 41 360 0.0 2.0 0.00 0.02 0.00 93 1014.8
20260507045705 41 360 0.0 2.0 0.00 0.02 0.00 92 1014.8
20260507044800 41 360 0.0 3.0 0.00 0.02 0.00 92 1014.6
20260507043900 41 360 0.0 1.0 0.00 0.02 0.00 91 1014.5
20260507043001 41 360 0.0 1.0 0.00 0.02 0.00 91 1014.5
20260507042100 42 360 0.0 2.0 0.00 0.02 0.00 91 1014.4
20260507041203 42 360 1.0 2.0 0.00 0.02 0.00 92 1014.4
20260507040300 42 360 1.0 3.0 0.00 0.02 0.00 92 1014.4
20260507035612 42 360 1.0 3.0 0.00 0.02 0.00 92 1014.4
20260507034501 42 360 1.0 4.0 0.00 0.02 0.00 92 1014.2
20260507033811 42 360 1.0 3.0 0.00 0.02 0.00 92 1014.2
20260507032701 42 360 2.0 5.0 0.00 0.02 0.00 92 1014.2
20260507031801 42 360 2.0 4.0 0.00 0.02 0.00 91 1014.2
20260507031113 42 360 2.0 4.0 0.00 0.02 0.00 91 1014.2
20260507030000 42 360 2.0 3.0 0.00 0.02 0.00 91 1014.2
20260507025101 42 360 2.0 5.0 0.00 0.02 0.00 91 1014.1
20260507024200 42 360 1.0 5.0 0.00 0.02 0.00 91 1014.1
20260507023300 43 360 2.0 3.0 0.00 0.02 0.00 91 1014.1
20260507022401 42 360 2.0 4.0 0.00 0.02 0.00 91 1014.1
20260507021500 42 360 1.0 4.0 0.00 0.02 0.00 91 1014.1
20260507020815 42 360 1.0 3.0 0.00 0.02 0.00 90 1014.0
20260507015703 43 360 1.0 3.0 0.00 0.02 0.00 91 1013.9
20260507014800 43 360 1.0 3.0 0.00 0.02 0.00 90 1013.9
20260507013900 43 360 1.0 3.0 0.00 0.02 0.00 90 1013.8
20260507013001 43 360 2.0 3.0 0.00 0.02 0.00 90 1013.8
20260507012312 43 360 1.0 3.0 0.00 0.02 0.00 90 1013.8
20260507010300 43 360 1.0 3.0 0.00 0.02 0.00 89 1013.8
20260507005614 44 360 2.0 4.0 0.00 0.02 0.00 89 1013.8
20260507004711 44 360 2.0 4.0 0.00 0.02 0.00 89 1013.8
20260507003601 44 360 2.0 3.0 0.00 0.02 0.00 89 1013.8
20260507002701 44 360 1.0 3.0 0.00 0.02 0.00 89 1013.8
20260507002013 44 360 1.0 3.0 0.00 0.02 0.00 88 1013.9
20260507001115 44 360 2.0 3.0 0.00 0.02 0.00 89 1013.8
20260507000213 45 360 2.0 4.0 0.00 0.02 0.00 88 1013.9
20260506235100 45 360 2.0 4.0 0.00 0.02 0.02 88 1013.9
20260506234200 45 14 1.0 2.0 0.00 0.02 0.02 88 1013.9
20260506233300 45 15 1.0 3.0 0.00 0.02 0.02 88 1013.9
20260506232400 46 15 1.0 3.0 0.00 0.02 0.02 88 1013.9
20260506231501 46 15 1.0 3.0 0.00 0.02 0.02 87 1013.8
20260506230601 46 19 2.0 3.0 0.00 0.02 0.02 87 1013.9
20260506225700 46 40 1.0 3.0 0.00 0.02 0.02 87 1013.8
20260506224801 46 42 1.0 3.0 0.00 0.02 0.02 87 1013.8
20260506223902 46 42 1.0 3.0 0.00 0.02 0.02 87 1013.8
20260506223211 47 43 2.0 3.0 0.00 0.02 0.02 86 1013.7
20260506222100 47 44 1.0 2.0 0.00 0.02 0.02 86 1013.7
20260506221200 47 44 1.0 2.0 0.00 0.02 0.02 85 1013.7
20260506220301 48 44 1.0 2.0 0.00 0.02 0.02 85 1013.6
20260506215400 48 44 1.0 3.0 0.00 0.02 0.02 84 1013.5
20260506214501 48 44 2.0 5.0 0.00 0.02 0.02 84 1013.4
20260506213815 48 41 2.0 5.0 0.00 0.02 0.02 84 1013.4
20260506212701 49 33 2.0 4.0 0.00 0.02 0.02 84 1013.5
20260506211800 49 30 2.0 4.0 0.00 0.02 0.02 83 1013.4
20260506211112 49 38 2.0 4.0 0.00 0.02 0.02 84 1013.4
20260506210000 49 45 2.0 5.0 0.00 0.02 0.02 83 1013.4
20260506205101 50 55 3.0 7.0 0.00 0.02 0.02 82 1013.3
20260506204205 50 53 2.0 5.0 0.00 0.02 0.02 82 1013.3
20260506203511 50 50 3.0 5.0 0.00 0.02 0.02 82 1013.3
20260506202614 50 50 3.0 8.0 0.00 0.02 0.02 81 1013.2
20260506201501 50 58 3.0 6.0 0.00 0.02 0.02 81 1013.1
20260506200601 50 64 3.0 5.0 0.00 0.02 0.02 80 1013.1
20260506195701 50 61 4.0 10.0 0.00 0.02 0.02 79 1013.0
20260506194800 50 61 5.0 11.0 0.00 0.02 0.02 79 1013.0
20260506193900 50 64 5.0 10.0 0.00 0.02 0.02 79 1012.8
20260506193001 51 56 4.0 8.0 0.00 0.02 0.02 79 1012.8
20260506192100 51 56 4.0 8.0 0.00 0.02 0.02 80 1012.7
20260506191412 51 53 4.0 9.0 0.00 0.02 0.02 79 1012.7
20260506190301 51 62 4.0 9.0 0.00 0.02 0.02 79 1012.6
20260506185617 51 58 4.0 9.0 0.00 0.02 0.02 79 1012.6
20260506184501 51 55 4.0 8.0 0.00 0.02 0.02 80 1012.4
20260506183812 52 50 3.0 8.0 0.00 0.02 0.02 80 1012.4
20260506182700 52 53 4.0 9.0 0.00 0.02 0.02 80 1012.2
20260506181803 52 60 3.0 8.0 0.00 0.02 0.02 81 1012.1
20260506180901 51 13 2.0 4.0 0.00 0.02 0.02 82 1012.0
20260506180001 52 8 1.0 4.0 0.00 0.02 0.02 85 1012.0
20260506175100 52 11 2.0 4.0 0.00 0.02 0.02 86 1011.9
20260506174411 52 12 2.0 4.0 0.00 0.02 0.02 85 1011.8
20260506173300 52 13 2.0 3.0 0.00 0.02 0.02 84 1011.8
20260506172400 52 30 3.0 8.0 0.00 0.02 0.02 79 1011.7
20260506171501 52 34 2.0 8.0 0.00 0.02 0.02 80 1011.6
20260506170815 52 26 1.0 4.0 0.00 0.02 0.02 83 1011.6
20260506165700 52 12 2.0 4.0 0.00 0.02 0.02 83 1011.7
20260506164801 52 21 2.0 4.0 0.00 0.02 0.02 84 1011.6
20260506163900 53 12 2.0 4.0 0.00 0.02 0.02 83 1011.6
20260506163001 53 38 2.0 6.0 0.00 0.02 0.02 83 1011.6
20260506162101 52 51 4.0 8.0 0.00 0.02 0.02 82 1011.5
20260506161203 53 49 4.0 8.0 0.00 0.02 0.02 83 1011.5
20260506160300 53 63 5.0 11.0 0.00 0.02 0.02 81 1011.5
20260506155401 54 72 5.0 10.0 0.00 0.02 0.02 79 1011.5
20260506154500 54 71 5.0 10.0 0.00 0.02 0.02 76 1011.4
20260506153601 55 57 3.0 9.0 0.00 0.02 0.02 76 1011.4
20260506152700 56 49 2.0 5.0 0.00 0.02 0.02 76 1011.4
20260506152014 56 45 2.0 6.0 0.00 0.02 0.02 76 1011.4
20260506150900 56 55 4.0 8.0 0.00 0.02 0.02 77 1011.4
20260506150005 56 53 4.0 8.0 0.00 0.02 0.02 77 1011.3
20260506145101 55 17 3.0 8.0 0.00 0.02 0.02 78 1011.4
20260506144413 55 3 3.0 6.0 0.00 0.02 0.02 79 1011.4
20260506143300 54 10 3.0 8.0 0.00 0.02 0.02 79 1011.3
20260506142401 53 15 4.0 9.0 0.00 0.02 0.02 80 1011.4
20260506141500 53 353 4.0 10.0 0.00 0.02 0.02 80 1011.5
20260506140812 53 360 5.0 12.0 0.00 0.02 0.02 81 1011.4
20260506135915 53 357 6.0 11.0 0.00 0.02 0.02 81 1011.4
20260506134800 53 25 5.0 11.0 0.00 0.02 0.02 83 1011.4
20260506134109 53 9 5.0 11.0 0.00 0.02 0.02 84 1011.5
20260506133001 53 25 4.0 10.0 0.00 0.02 0.02 85 1011.4
20260506132101 53 29 5.0 10.0 0.00 0.02 0.02 85 1011.4
20260506131201 53 22 5.0 11.0 0.00 0.02 0.02 83 1011.3
20260506130301 53 355 6.0 12.0 0.00 0.02 0.02 83 1011.3
20260506125403 53 357 5.0 11.0 0.00 0.02 0.02 83 1011.2
20260506124503 53 1 4.0 9.0 0.00 0.02 0.02 84 1011.2
20260506123601 52 357 4.0 9.0 0.01 0.02 0.02 86 1011.2
20260506122913 52 346 4.0 9.0 0.01 0.02 0.02 87 1011.2
20260506121800 52 3 4.0 9.0 0.01 0.02 0.02 87 1011.2
20260506120901 52 8 4.0 10.0 0.02 0.02 0.02 86 1011.2
20260506120000 52 8 4.0 10.0 0.02 0.02 0.02 88 1011.1
20260506115101 52 7 4.0 7.0 0.02 0.02 0.02 88 1011.0
20260506114200 52 32 4.0 8.0 0.02 0.02 0.02 87 1011.0
20260506113300 52 40 4.0 10.0 0.02 0.02 0.02 87 1011.0
20260506112401 52 56 5.0 11.0 0.02 0.02 0.02 86 1011.0
20260506111500 53 61 7.0 12.0 0.02 0.02 0.02 83 1011.0
20260506110600 54 37 5.0 12.0 0.01 0.01 0.01 82 1011.0
20260506105701 54 7 5.0 12.0 0.00 0.00 0.00 77 1010.9
20260506104800 54 341 6.0 13.0 0.00 0.00 0.00 73 1010.8
20260506103901 55 350 6.0 11.0 0.00 0.00 0.00 72 1010.8
20260506103213 55 354 6.0 13.0 0.00 0.00 0.00 72 1010.8
20260506102100 56 346 5.0 10.0 0.00 0.00 0.00 71 1010.7
20260506101413 56 337 5.0 11.0 0.00 0.00 0.00 71 1010.7
20260506100300 55 353 6.0 13.0 0.00 0.00 0.00 71 1010.7
20260506095613 55 353 6.0 12.0 0.00 0.00 0.00 72 1010.7
20260506094501 55 348 6.0 14.0 0.00 0.00 0.00 74 1010.7
20260506093603 55 355 7.0 15.0 0.00 0.00 0.00 73 1010.7
20260506092701 55 3 7.0 13.0 0.00 0.00 0.00 74 1010.6
20260506091800 54 352 7.0 12.0 0.00 0.00 0.00 73 1010.5
20260506090900 54 2 6.0 12.0 0.00 0.00 0.00 74 1010.5
20260506090000 54 358 4.0 11.0 0.00 0.00 0.00 77 1010.4
20260506085103 53 359 5.0 12.0 0.00 0.00 0.00 78 1010.5
20260506084200 53 356 7.0 13.0 0.00 0.00 0.00 79 1010.5
20260506083300 52 355 7.0 13.0 0.00 0.00 0.00 80 1010.4
20260506082611 52 351 7.0 13.0 0.00 0.00 0.00 80 1010.5
20260506081500 51 357 5.0 12.0 0.00 0.00 0.00 82 1010.4
20260506080601 50 354 6.0 12.0 0.00 0.00 0.00 82 1010.4